User: anonymous   Login
Location: Via Auriletto, 13, 10098 Rivoli TO, Italia
(45.0746°N, 7.5214°E)
Time: 18:19:37
(UTC+02:00)
Language:

EO-79 - Orbit

View from above orbital plane
View from above orbital plane
View from above satellite
View from above satellite

Ground track
Ground track

The orbit data is extracted from the following two-line orbital elements,

1 40025U 14033R   19138.71944121  .00000288  00000-0  36654-4 0  9999
2 40025  97.9067  58.4527 0012896 155.1432 205.0408 14.88925153266716
Epoch (UTC): 18 May 2019 17:15:59
Eccentricity: 0.0012896
inclination: 97.9067°
perigee height: 592 km
apogee height: 610 km
right ascension of ascending node: 58.4527°
argument of perigee: 155.1432°
revolutions per day: 14.88925153
mean anomaly at epoch: 205.0408°
orbit number at epoch: 26671

The dashed part of the orbit path shows where the satellite is in the earth's shadow,  

DLR